Weather History for EGNR - September, 2012

Change the Weather History Date:

Wednesday, September 12, 2012

  Actual Average (EGGP) Record (EGGP)
Temperature  
Mean Temperature 52 °F -  
Max Temperature 61 °F 59 °F 75 °F (2006)
Min Temperature 44 °F 49 °F 46 °F (1998)
Degree Days  
Heating Degree Days 12    
Growing Degree Days 2 (Base 50)    
Moisture  
Dew Point 50 °F    
Average Humidity 77    
Maximum Humidity 94    
Minimum Humidity 53    
Precipitation  
Precipitation 0.16 in - - ()
Sea Level Pressure  
Sea Level Pressure 29.91 in    
Wind  
Wind Speed 10 mph ()    
Max Wind Speed 20 mph    
Max Gust Speed 33 mph    
Visibility 7.3 miles    
Events Rain    
Averages and records for this station are not official NWS values.
T = Trace of Precipitation, MM = Missing Value Source: Averaged Metar Reports

Daily Weather History Graph

Daily Weather History Graph

Search for Another Location

Airport or City:

Trip Planner

Search our weather history database for the weather conditions in past years. The results will help you decide how hot, cold, wet, or windy it might be!

Date:

Astronomy

Sep. 12, 2012 Rise Set
Actual Time 6:41 AM BST 7:33 PM BST
Civil Twilight 6:05 AM BST 8:09 PM BST
Nautical Twilight 5:23 AM BST 8:51 PM BST
Astronomical Twilight 4:37 AM BST 9:36 PM BST
Moon 2:16 AM BST (9/12) 5:34 PM BST (9/12)
Length of Visible Light 14h 03m
Length of Day
12h 52m
Waning Crescent, 15% of the Moon is Illuminated
Sep 12
Waning Crescent
Sep 16
New
Sep 22
First Quarter
Sep 30
Full
Oct 8
Last Quarter

Hourly Weather History & Observations

Time (BST) Temp. Dew Point Humidity Pressure Visibility Wind Dir Wind Speed Gust Speed Precip Events Conditions
12:50 AM 47 °F 40 °F 68% 29.97 in 22 mi WSW 8.1 mph - -  
3:50 AM 46 °F 39 °F 69% 29.93 in 19 mi SSE 1.2 mph - -   Partly Cloudy
6:20 AM 48.2 °F 46.4 °F 93% 29.89 in 6.2 mi WSW 5.8 mph - N/A   Partly Cloudy
6:50 AM 52 °F 45 °F 69% 29.91 in 31 mi SSW 6.9 mph - -  
6:50 AM 51.8 °F 48.2 °F 88% 29.89 in 6.2 mi SW 8.1 mph - N/A   Partly Cloudy
7:20 AM 53.6 °F 48.2 °F 82% 29.89 in 6.2 mi WSW 8.1 mph - N/A   Partly Cloudy
7:50 AM 53.6 °F 50.0 °F 88% 29.89 in 6.2 mi SW 5.8 mph - N/A   Partly Cloudy
9:50 AM 57 °F 49 °F 67% 29.89 in 31 mi WSW 8.1 mph - -   Overcast
10:20 AM 60.8 °F 53.6 °F 77% 29.89 in 6.2 mi WSW 11.5 mph - N/A   Scattered Clouds
10:50 AM 60.8 °F 51.8 °F 72% 29.89 in 6.2 mi West 13.8 mph - N/A   Scattered Clouds
11:50 AM 60.8 °F 51.8 °F 72% 29.86 in 6.2 mi WSW 16.1 mph - N/A   Scattered Clouds
12:20 PM 62.6 °F 53.6 °F 72% 29.86 in 6.2 mi WSW 15.0 mph - N/A   Scattered Clouds
12:50 PM 59 °F 52 °F 71% 29.86 in 9 mi WSW 10.4 mph - - Rain Rain Showers
12:50 PM 59.0 °F 53.6 °F 82% 29.86 in 6.2 mi WSW 10.4 mph - N/A   Scattered Clouds
1:20 PM 57.2 °F 55.4 °F 94% 29.86 in 3.7 mi WSW 11.5 mph - N/A Rain Light Rain
1:50 PM 59.0 °F 57.2 °F 94% 29.86 in 6.2 mi WSW 12.7 mph - N/A Rain Rain
2:20 PM 60.8 °F 59.0 °F 94% 29.83 in 6.2 mi WSW 13.8 mph - N/A Rain Light Rain
2:50 PM 60.8 °F 57.2 °F 88% 29.83 in 6.2 mi West 10.4 mph - N/A   Scattered Clouds
3:20 PM 59.0 °F 57.2 °F 94% 29.86 in 1.2 mi WNW 11.5 mph - N/A Rain Heavy Rain Showers
3:50 PM 56 °F 51 °F 79% 29.87 in 7 mi NW 15.0 mph - - Rain Light Rain Showers
3:50 PM 57.2 °F 55.4 °F 94% 29.86 in 6.2 mi NNW 17.3 mph - N/A Rain Light Rain
4:20 PM 57.2 °F 53.6 °F 88% 29.89 in 6.2 mi NNW 18.4 mph 33.4 mph N/A   Mostly Cloudy
4:50 PM 57.2 °F 50.0 °F 77% 29.89 in 6.2 mi NNW 18.4 mph - N/A   Scattered Clouds
5:20 PM 55.4 °F 50.0 °F 82% 29.92 in 6.2 mi NNW 17.3 mph - N/A   Scattered Clouds
5:50 PM 57.2 °F 46.4 °F 67% 29.92 in 6.2 mi NNW 19.6 mph - N/A   Scattered Clouds
6:20 PM 55.4 °F 44.6 °F 67% 29.92 in 6.2 mi NNW 16.1 mph - N/A   Scattered Clouds
6:50 PM 55 °F 43 °F 53% 29.95 in 19 mi NW 15.0 mph - -   Scattered Clouds
6:50 PM 57.2 °F 46.4 °F 67% 29.95 in 6.2 mi NNW 13.8 mph - N/A   Scattered Clouds
7:20 PM 57.2 °F 46.4 °F 67% 29.95 in 6.2 mi NNW 18.4 mph - N/A   Partly Cloudy
7:50 PM 55.4 °F 44.6 °F 67% 29.98 in 6.2 mi NNW 13.8 mph - N/A   Partly Cloudy
8:20 PM 53.6 °F 44.6 °F 72% 30.01 in 6.2 mi NNW 19.6 mph - N/A   Partly Cloudy
8:50 PM 53.6 °F 46.4 °F 77% 30.01 in 6.2 mi NNW 13.8 mph - N/A   Partly Cloudy
9:50 PM 54 °F 44 °F 59% 30.04 in 17 mi NW 12.7 mph - -   Mostly Cloudy